SCP
0 0 0 0 0 0 0 0 0 0 0 0 0 0 0 0 0 0 0 0 0 0 0 0 0 0 0 0 0 0 0 0 0 0 0 0 0 0 0 0 0 0 0
0 0 0 0 0 0 0 0 0 0 0 0 0 0 0 0 0 0 0 0 0 0 0 0 0 0 0 0 0 0 0 0 0 0 0 0 0 0 0 0 0 0 0
0 0 0 0 0 0 0 0 0 0 0 0 0 0 0 0 0 0 0 0 0 0 0 0 0 0 0 0 0 0 0 0 0 0 0 0 0 0 0 0 0 0 0
0 0 0 0 0 0 0 0 0 0 0 0 0 0 0 0 0 0 0 0 0 0 0 0 0 0 0 0 0 0 0 0 0 0 0 0 0 0 0 0 0 0 0
0 0 0 0 0 0 0 0 0 0 0 0 0 0 0 0 0 0 0 0 0 0 0 0 0 0 0 0 0 0 0 0 0 0 0 0 0 0 0 0 0 0 0
0 0 0 0 0 0 0 0 0 0 0 0 0 0 0 0 0 0 0 0 0 0 0 0 0 0 0 0 0 0 0 0 0 0 0 0 0 0 0 0 0 0 0
0 0 0 0 0 0 0 0 0 0 0 0 0 0 0 0 0 0 0 0 0 0 0 0 0 0 0 0 0 0 0 0 0 0 0 0 0 0 0 0 0 0 0
0 0 0 0 0 0 0 0 0 0 0 0 0 0 0 0 0 0 0 0 0 0 0 0 0 0 0 0 0 0 0 0 0 0 0 0 0 0 0 0 0 0 0
0 0 0 0 0 0 0 0 0 0 0 0 0 0 0 0 0 0 0 0 0 0 0 0 0 0 0 0 0 0 0 0 0 0 0 0 0 0 0 0 0 0 0
0 0 0 0 0 0 0 0 0 0 0 0 0 0 0 0 0 0 0 0 0 0 0 0 0 0 0 0 0 0 0 0 0 0 0 0 0 0 0 0 0 0 0
0 0 0 0 0 0 0 0 0 0 0 0 0 0 0 0 0 0 0 0 0 0 0 0 0 0 0 0 0 0 0 0 0 0 0 0 0 0 0 0 0 0 0
0 0 0 0 0 0 0 0 0 0 0 0 0 0 0 0 0 0 0 0 0 0 0 0 0 0 0 0 0 0 0 0 0 0 0 0 0 0 0 0 0 0 0
0 0 0 0 0 0 0 0 0 0 0 0 0 0 0 0 0 0 0 0 0 0 0 0 0 0 0 0 0 0 0 0 0 0 0 0 0 0 0 0 0 0 0
0 0 0 0 0 0 0 0 0 0 0 0 0 0 0 0 0 0 0 0 0 0 0 0 0 0 0 0 0 0 0 0 0 0 0 0 0 0 0 0 0 0 0
0 0 0 0 0 0 0 0 0 0 0 0 0 0 0 0 0 0 0 0 0 0 0 0 0 0 0 0 0 0 0 0 0 0 0 0 0 0 0 0 0 0 0
0 0 0 0 0 0 0 0 0 0 0 0 0 0 0 0 0 0 0 0 0 0 0 0 0 0 0 0 0 0 0 0 0 0 0 0 0 0 0 0 0 0 0
0 0 0 0 0 0 0 0 0 0 0 0 0 0 0 0 0 0 0 0 0 0 0 0 0 0 0 0 0 0 0 0 0 0 0 0 0 0 0 0 0 0 0
0 0 0 0 0 0 0 0 0 0 0 0 0 0 0 0 0 0 0 0 0 0 0 0 0 0 0 0 0 0 0 0 0 0 0 0 0 0 0 0 0 0 0
-0 -0 -0 0 0 0 0 0 0 0 0 0 0 0 0 0 0 0 0 0 0 0 0 0 0 0 0 0 0 0 0 0 0 0 0 0 0 0 0 0 0 0 0
-0 -0 -0 -0 0 0 0 0 0 0 0 0 0 0 0 0 0 0 0 0 0 0 0 0 0 0 0 0 0 0 0 0 0 0 0 0 0 0 0 0 0 0 0
-0 -0 -0 -0 -0 0 0 0 0 0 0 0 0 0 0 0 0 0 0 0 0 0 0 0 0 0 0 0 0 0 0 0 0 0 0 0 0 0 0 0 0 0 0
-0 -0 -0 -0 0 0 -0 -0 -0 -0 -0 -0 0 0 0 0 0 0 0 0 0 0 0 0 0 0 0 0 0 0 0 0 0 0 0 0 0 0 0 0 0 0 0
-0 0 0 0 0 0 -0 -0 -0 -0 -0 -0 -0 -0 0 0 0 0 0 0 0 0 0 0 0 0 0 0 0 0 0 0 0 0 0 0 0 0 0 0 0 0 0
0 0 0 0 0 0 -0 -0 -0 -0 -0 -0 -0 -0 -0 0 0 0 0 0 0 0 0 0 0 0 0 0 0 0 0 0 0 0 0 0 0 0 0 0 0 0 0
0 0 0 0 0 0 0 -0 -0 0 0 -0 -0 -0 -0 0 0 0 0 0 0 0 0 0 0 0 0 0 0 0 0 0 0 0 0 0 0 0 0 0 0 0 0
0 0 0 0 0 0 0 -0 0 0 0 -0 -0 -0 -0 -0 -0 0 0 0 0 0 0 0 0 0 0 0 0 0 0 0 0 0 0 0 0 0 0 0 0 0 0
Wind_Speed
2 1 1 1 1 1 1 2 2 2 3 3 3 4 3 4 4 4 3 9 11 11 11 12 12 12 12 11 11 11 10 9 8 8 7 8 7 8 8 8 8 8 7
2 1 1 1 1 1 1 2 2 2 2 2 2 2 3 3 4 4 3 5 10 10 10 10 10 10 10 11 11 11 10 10 9 8 8 8 8 8 8 8 7 8 7
2 2 1 1 1 1 1 1 1 1 1 1 2 2 2 3 3 4 4 3 4 8 10 9 9 9 9 10 10 10 10 10 9 9 9 9 8 8 8 8 8 7 8
2 2 1 1 1 1 0 1 1 0 1 1 1 2 2 2 3 4 4 4 3 4 7 10 10 10 10 10 10 10 10 10 10 10 9 9 9 9 9 9 9 8 8
2 2 1 1 1 0 0 1 0 0 1 2 2 2 2 2 3 4 4 5 4 4 4 7 10 10 10 11 10 10 10 10 10 10 10 10 10 9 9 9 9 9 9
1 2 1 1 1 0 0 1 1 1 1 1 2 2 2 2 2 3 4 4 4 5 5 4 4 6 9 10 9 10 11 11 11 10 10 10 10 10 10 10 10 9 9
1 1 1 1 1 1 1 1 0 1 1 1 1 2 2 2 1 1 2 3 4 5 5 5 4 3 4 8 9 10 11 11 11 11 11 10 10 10 10 10 10 9 9
1 2 2 1 1 0 0 0 0 0 1 0 1 1 2 3 2 1 1 2 3 3 4 6 5 5 4 3 5 10 10 10 10 10 10 10 10 9 10 10 10 9 9
1 1 2 1 1 1 1 1 1 1 1 1 1 2 1 2 2 2 1 1 1 2 3 3 5 5 5 4 4 7 10 10 10 11 11 11 10 10 10 10 10 10 10
1 1 1 1 1 1 1 1 0 1 1 1 1 0 2 2 1 2 3 2 2 2 3 3 3 4 4 4 4 6 9 9 10 11 11 11 11 10 10 10 11 12 11
1 1 1 1 1 0 0 0 0 0 0 1 1 1 0 0 1 2 2 3 2 2 2 2 2 3 4 4 4 6 8 9 9 10 10 11 12 11 11 11 11 12 12
1 1 1 1 1 0 0 0 0 1 1 0 0 0 1 1 1 1 2 2 2 2 2 2 2 2 3 4 6 8 8 9 9 9 9 10 10 10 10 11 11 11 12
0 1 0 0 0 0 0 0 0 1 1 1 0 0 0 1 1 2 2 2 2 2 1 1 2 2 3 3 4 7 8 8 8 9 9 9 9 9 10 10 10 10 10
1 1 1 0 0 0 1 1 1 1 1 1 1 1 0 1 0 1 2 1 1 2 1 2 1 1 2 2 4 6 4 7 8 8 9 9 9 9 9 9 9 9 9
1 0 0 1 0 1 1 1 1 1 1 1 1 1 1 1 1 0 0 2 2 1 2 2 2 2 2 2 3 3 3 6 7 7 8 8 8 8 8 8 8 8 8
0 1 1 1 1 1 1 1 1 1 1 1 1 2 2 1 1 1 0 0 1 2 2 2 2 2 2 1 2 2 3 5 6 7 7 7 7 7 7 7 7 7 8
1 1 1 1 1 1 1 2 1 1 1 1 1 1 2 2 2 2 1 1 0 1 1 2 2 2 1 1 1 1 1 2 3 6 6 7 7 7 7 6 7 7 7
1 2 2 1 1 1 1 1 0 0 0 0 1 1 2 2 2 2 1 1 1 1 1 2 2 1 1 2 1 1 1 2 2 4 6 6 6 6 6 6 6 6 7
1 2 2 2 1 1 1 1 2 1 1 1 1 1 1 1 2 2 1 1 1 1 0 1 1 1 1 1 1 1 1 1 2 2 4 6 7 7 7 6 6 6 7
2 2 2 2 2 2 2 2 1 1 1 1 2 2 1 1 1 1 1 1 1 1 0 0 1 1 1 1 1 1 2 2 2 2 2 2 4 6 6 6 7 7 7
3 2 2 1 2 2 2 2 2 2 2 1 2 2 2 1 1 1 1 1 1 0 0 0 1 1 1 1 1 1 1 2 2 1 1 1 1 2 3 5 6 6 6
2 2 2 2 2 2 2 3 2 2 2 2 2 2 2 1 2 2 3 2 1 1 2 1 1 1 2 2 1 1 0 1 2 2 0 2 1 2 3 3 5 6 6
3 3 3 2 2 3 3 3 3 2 2 2 2 2 2 1 1 1 3 3 3 3 3 3 3 3 3 3 2 1 1 1 3 3 0 2 1 2 3 3 5 6 6
3 3 4 3 3 3 3 3 3 2 2 3 3 3 2 2 2 1 1 2 3 3 3 2 3 4 4 3 3 3 3 2 2 2 1 1 2 2 3 2 4 6 6
3 3 3 4 4 3 4 3 3 1 2 3 3 3 3 3 4 2 1 2 3 4 3 2 3 3 4 4 3 1 0 0 2 2 1 1 2 2 2 3 4 6 6
3 3 3 4 4 4 4 4 4 2 2 2 2 2 3 3 4 3 2 2 3 4 3 3 3 4 3 4 4 3 3 2 2 2 2 1 1 0 2 2 2 2 3
Wind_Direction
178 200 215 217 193 191 204 221 224 231 240 248 233 219 215 205 199 197 204 201 196 195 198 198 201 202 201 199 196 194 197 199 198 198 197 200 203 202 201 206 213 209 203
170 174 179 199 216 208 208 218 228 230 243 234 227 216 211 205 196 195 197 198 199 197 199 198 199 201 203 204 203 199 198 198 197 195 198 200 204 203 202 205 209 207 206
168 172 175 201 231 219 204 223 254 243 241 235 232 232 218 206 197 192 185 186 197 200 196 194 197 200 203 204 205 204 201 200 197 198 200 200 201 201 201 205 211 211 209
163 162 172 218 236 196 189 218 247 277 284 265 251 246 231 212 204 188 183 186 191 197 201 201 202 204 204 207 207 207 204 201 201 202 204 203 204 206 205 204 211 211 210
171 156 169 210 218 160 242 272 346 228 266 281 266 250 227 214 214 202 191 191 192 192 196 202 204 206 207 210 211 212 207 204 205 207 208 208 209 211 210 209 211 213 213
169 151 167 201 165 113 326 310 291 287 242 262 284 292 269 241 219 202 198 195 197 198 198 201 201 209 209 210 212 215 213 208 208 209 212 213 214 215 216 216 215 215 215
167 147 177 167 149 165 230 255 258 313 297 317 19 340 328 308 262 221 199 191 204 203 193 197 199 204 212 214 213 214 214 213 213 214 216 217 218 218 218 217 216 216 214
156 148 155 173 164 152 359 329 140 238 288 28 120 55 345 338 333 284 228 206 207 197 199 200 197 204 206 202 211 211 213 213 213 216 217 216 216 215 217 216 216 214 213
140 131 138 138 142 154 186 234 197 183 244 294 157 150 159 247 307 320 282 245 215 203 208 198 199 203 205 203 205 211 210 212 215 219 218 217 216 216 217 219 220 218 217
132 126 112 116 124 147 186 254 194 196 161 277 307 221 186 182 185 306 319 302 263 230 225 213 202 202 203 197 203 203 208 211 216 221 221 219 217 218 219 221 223 222 221
76 96 109 110 97 91 73 328 352 347 164 194 230 254 287 310 175 181 275 303 314 274 239 220 200 200 196 195 200 212 212 210 213 217 222 222 219 219 220 221 225 226 224
11 17 83 99 108 106 318 275 330 4 329 271 223 181 174 182 218 185 228 262 278 283 264 239 216 204 198 199 207 206 212 209 209 214 219 220 219 221 222 223 227 229 228
281 278 132 147 215 276 326 14 32 5 357 351 314 282 238 220 198 186 195 250 265 281 296 279 246 223 213 200 215 205 210 210 212 218 218 218 218 221 222 225 228 231 233
224 237 193 162 176 48 57 66 43 359 34 10 351 347 319 297 219 189 186 187 284 313 318 288 295 248 242 215 228 209 212 215 221 223 221 219 219 221 222 224 227 229 233
211 157 104 141 82 67 57 75 61 22 39 26 4 7 11 341 355 328 171 165 171 223 274 279 286 272 250 221 221 216 221 221 218 218 219 217 216 217 219 219 223 226 229
163 100 91 89 79 70 62 64 54 23 46 4 1 12 356 335 350 356 21 96 178 181 229 257 253 268 263 247 223 217 222 221 218 219 219 216 212 214 216 218 221 222 226
124 124 133 127 122 106 99 86 53 36 59 5 359 19 356 351 0 349 0 35 65 153 211 278 278 294 301 284 287 260 230 218 229 226 225 223 217 213 214 219 223 224 225
163 164 154 140 156 148 136 123 159 240 179 243 335 6 342 356 359 346 0 351 318 206 184 259 297 319 302 264 263 256 253 234 232 235 228 227 226 223 221 222 223 228 230
179 183 164 160 175 182 175 182 191 202 201 206 207 213 288 346 336 322 350 349 319 326 185 197 268 287 291 321 349 314 308 303 258 244 228 228 230 231 226 221 222 226 231
179 199 191 185 191 196 197 200 199 195 214 229 219 209 225 220 259 285 326 322 321 344 346 211 271 298 301 318 43 338 329 326 301 302 284 242 235 237 239 235 229 228 233
197 199 199 201 202 201 212 205 210 201 213 243 254 238 227 225 256 271 299 288 319 304 285 227 258 312 313 339 280 261 282 299 304 300 318 292 261 250 244 240 235 231 231
210 202 207 205 212 228 224 205 194 199 209 219 251 263 253 272 297 317 318 313 250 231 224 216 230 229 248 248 254 249 227 336 300 295 296 289 259 252 253 240 236 232 235
212 220 227 218 224 248 236 221 206 194 216 226 229 237 256 269 267 304 312 329 320 301 228 198 214 231 229 232 218 230 219 213 242 261 189 274 271 261 262 254 235 236 240
217 223 230 220 219 245 232 223 224 210 232 242 234 225 225 252 260 253 278 317 308 299 270 226 217 232 233 229 213 209 221 236 272 285 171 234 274 272 278 273 250 240 243
230 233 229 215 217 242 225 219 208 211 249 266 258 232 218 235 256 245 228 290 304 304 299 269 256 258 262 253 226 180 262 102 297 293 257 200 256 283 286 275 271 253 251
230 235 234 223 219 228 222 215 195 188 237 266 279 256 236 238 254 240 217 233 271 278 294 308 305 304 291 283 263 213 198 202 233 271 256 199 252 321 310 293 290 284 269